RH
14 13 12 12 12 11 10 8 8 7 6 6 6 6 7 7 5 5 6 5 5 5 5 5 5 5 6 6 6 6 7 7 7 8 8 8 9 11 13 14 15 15
12 11 11 10 10 9 8 7 6 6 6 6 6 6 5 5 5 5 4 4 5 5 5 5 5 5 5 5 5 5 5 6 6 6 6 7 7 8 11 14 16 18
9 9 8 8 8 7 6 6 6 6 6 6 5 6 6 6 5 5 4 5 6 6 7 6 6 7 6 6 6 6 6 6 6 6 5 5 6 6 7 8 11 17
7 7 7 7 7 7 7 7 7 7 6 7 8 8 7 7 6 7 7 7 8 8 8 8 8 7 7 7 6 6 7 7 6 6 6 5 5 5 5 6 6 9
8 7 8 8 8 8 8 8 8 8 8 8 8 8 8 7 7 8 9 8 8 8 7 7 7 7 7 7 7 7 7 7 6 6 6 5 6 5 5 6 6 8
10 10 9 9 9 9 9 9 8 8 9 8 7 8 7 6 7 8 8 7 7 6 6 6 6 6 6 6 7 7 6 6 6 6 5 5 5 5 5 5 6 8
12 11 11 10 10 10 9 10 9 9 9 9 8 8 7 7 7 7 7 6 7 7 7 7 7 7 7 7 8 8 8 7 7 6 6 6 5 6 6 7 7 8
17 14 13 11 10 10 10 10 9 8 8 8 8 8 7 7 7 7 7 6 7 8 7 7 7 7 7 8 9 10 10 10 10 9 8 7 7 7 7 8 8 9
29 25 21 17 14 12 10 9 8 7 7 7 8 8 8 9 10 11 13 14 15 14 11 9 8 8 8 8 9 10 11 12 12 12 12 11 10 9 8 9 9 9
39 36 31 28 23 19 15 11 9 8 8 9 10 11 14 16 18 20 22 24 24 22 20 16 13 11 10 10 11 11 12 12 13 13 14 14 14 13 12 11 10 12
42 37 35 34 32 30 26 21 17 14 14 15 17 19 21 23 26 28 29 28 28 28 26 25 24 22 17 14 12 12 12 13 12 12 13 14 14 16 17 16 14 13
47 42 41 40 38 38 37 35 30 25 23 25 26 28 30 32 33 32 32 33 35 35 31 28 29 27 22 19 17 14 13 13 12 11 11 11 12 13 16 19 20 19
55 52 49 45 43 42 43 44 39 32 27 28 29 30 32 33 34 34 36 39 41 41 39 34 29 24 19 17 17 14 11 10 11 10 10 10 10 10 12 14 17 20
65 62 58 54 48 45 44 46 46 39 29 27 29 32 35 37 37 37 40 45 46 46 44 38 30 23 18 14 12 10 9 9 9 8 8 9 9 9 9 10 12 13
74 70 66 61 53 45 42 44 48 43 30 25 30 34 39 42 42 42 43 45 45 42 37 31 23 18 15 13 11 10 10 11 11 9 9 9 9 10 10 9 11 11
81 78 74 70 60 50 43 41 46 43 30 24 31 36 40 44 45 44 42 41 39 34 28 24 18 14 13 13 12 11 11 11 11 11 11 10 10 11 11 11 11 12
83 82 80 79 73 61 48 41 43 41 29 24 32 39 41 42 42 40 37 35 33 28 22 19 16 13 13 12 11 11 11 10 10 10 9 9 10 10 10 12 12 12
83 82 81 83 78 66 52 42 39 36 26 23 32 40 41 39 36 32 29 27 24 21 17 15 14 12 12 11 10 10 10 10 10 10 9 9 9 9 10 11 11 12
83 81 83 83 77 66 54 43 36 30 23 25 34 40 38 32 26 23 21 20 19 17 15 13 12 11 11 11 10 10 10 10 10 10 10 10 10 10 10 11 12 13
84 82 82 81 76 65 54 43 33 26 23 29 35 33 27 22 19 19 18 17 15 14 12 12 11 10 11 10 10 10 10 10 10 10 11 12 12 11 11 11 12 12
85 82 81 79 72 61 50 40 30 24 24 28 28 23 18 17 17 17 16 14 13 12 11 11 11 11 12 11 11 11 11 10 11 10 10 11 10 10 10 10 10 10
85 82 79 74 64 52 43 34 26 24 24 23 20 18 17 18 17 15 14 13 12 12 11 11 12 12 12 11 10 10 9 9 8 7 7 7 7 7 6 6 6 6
83 81 75 65 55 46 37 28 23 23 22 20 18 18 18 16 15 13 13 12 12 12 11 10 10 9 8 7 7 6 6 5 5 4 4 4 4 4 4 4 4 4
83 76 67 57 48 41 32 24 23 22 21 20 19 17 16 14 14 14 12 11 9 7 6 6 6 6 6 5 4 4 4 4 5 6 7 10 11 9 8 8 6 7
77 66 57 48 39 31 25 22 22 22 20 19 17 15 15 14 12 10 8 7 7 8 11 13 14 16 18 16 15 15 16 19 21 24 28 33 36 35 34 32 28 26
62 52 45 37 28 23 22 22 22 20 18 16 15 15 13 10 8 8 9 13 17 20 23 24 26 28 31 31 32 36 42 46 48 50 54 57 59 60 60 58 54 49
Wind_Speed
11 11 11 11 11 12 12 12 12 12 11 12 12 12 13 14 13 14 15 15 15 15 15 15 15 15 15 16 17 17 17 17 17 17 17 17 17 16 15 15 15 16
10 10 10 11 11 11 11 11 11 11 11 12 13 14 14 15 17 17 16 15 16 17 17 16 16 16 16 17 18 17 17 18 18 19 19 19 19 18 17 17 16 16
9 9 9 9 9 10 10 10 10 11 12 12 13 14 15 17 18 18 16 15 16 17 18 18 18 18 18 18 18 18 17 18 18 19 20 20 21 20 19 19 19 18
6 6 7 7 7 8 8 9 10 11 11 12 13 15 16 16 16 16 16 16 16 17 18 19 19 20 20 20 20 19 18 18 19 20 21 20 21 21 20 21 21 20
4 5 6 7 7 8 8 9 11 10 11 13 13 15 16 15 14 14 16 16 16 17 17 18 19 19 20 20 20 20 19 19 20 21 21 20 20 21 21 21 21 21
4 5 5 6 7 8 9 10 11 11 12 14 14 13 15 14 13 14 16 17 17 17 17 17 18 18 19 19 19 20 19 19 20 21 21 21 20 21 21 21 21 21
4 4 5 6 6 8 9 10 11 11 12 14 13 14 14 14 13 14 17 17 16 16 16 17 17 17 18 18 19 19 19 20 20 21 21 21 21 21 21 21 22 22
5 4 4 5 6 7 9 10 11 12 12 13 13 14 14 14 14 15 16 17 16 15 16 17 17 17 17 18 18 18 19 19 20 21 21 21 21 21 21 21 22 23
7 6 6 7 8 8 9 10 11 12 13 13 14 14 14 14 14 14 15 15 15 15 16 17 17 17 18 18 19 19 19 19 20 20 21 21 21 21 21 21 23 23
10 9 9 10 12 12 11 11 11 12 12 13 14 14 14 14 15 15 14 15 15 16 17 18 18 19 19 19 19 20 20 20 20 21 21 21 21 21 22 22 23 23
12 12 14 15 16 16 16 15 14 14 14 14 14 15 15 15 16 16 16 17 17 18 18 18 19 19 19 19 19 19 20 20 21 21 21 21 21 21 21 22 23 23
13 14 16 18 19 19 19 19 18 17 17 16 16 16 16 17 17 17 18 19 19 20 20 20 19 18 18 18 18 18 19 20 21 21 21 21 21 21 21 21 22 23
13 14 17 19 20 21 21 20 20 19 18 18 17 18 18 18 18 19 20 20 21 22 22 22 22 21 20 19 17 17 18 19 20 20 21 22 22 22 22 22 22 22
15 16 18 20 22 23 23 22 22 22 21 20 19 19 19 19 20 21 21 21 22 23 24 24 24 24 23 21 20 19 19 20 20 20 20 21 22 22 23 23 23 23
17 17 19 21 23 24 24 24 24 23 23 22 20 20 20 20 21 22 22 22 23 24 24 25 25 24 24 23 23 22 21 21 22 22 22 22 21 22 22 23 23 23
17 17 19 22 24 25 26 26 25 24 25 24 22 21 21 21 22 23 23 24 24 24 25 25 26 26 25 25 25 25 24 23 23 24 24 24 23 23 23 23 23 24
18 19 21 23 25 26 27 27 26 26 27 26 23 22 22 23 23 24 24 25 25 25 25 26 27 27 27 27 27 26 26 26 26 25 25 25 24 24 24 24 24 25
21 22 23 24 26 27 28 29 28 29 29 27 24 24 24 24 24 25 25 25 26 26 27 27 27 27 28 28 28 27 27 27 28 28 27 26 25 24 24 24 25 25
23 24 24 26 28 29 30 31 31 31 31 28 26 25 25 25 25 25 25 25 26 27 28 28 27 27 27 28 28 28 27 28 28 28 29 28 27 26 25 25 25 26
25 25 25 27 29 30 31 33 33 32 31 29 27 26 26 26 25 25 25 26 27 28 28 28 27 27 27 28 29 28 28 28 28 28 29 29 29 28 27 26 27 27
26 26 27 29 30 32 33 33 33 32 31 29 27 26 26 25 25 26 26 27 27 27 28 28 27 27 27 29 30 30 29 29 29 29 30 30 30 30 29 28 29 29
26 27 29 30 32 33 33 33 33 32 30 28 27 26 25 25 26 26 26 26 26 26 27 27 27 27 28 29 31 31 31 30 30 31 32 32 32 31 31 31 31 31
27 28 29 31 32 32 33 33 32 30 27 26 26 25 25 26 26 26 25 25 25 25 26 27 27 27 28 30 32 32 32 31 32 33 34 34 33 32 32 32 32 32
27 28 30 31 32 33 34 33 29 27 25 25 26 26 25 25 25 25 25 24 25 26 27 28 28 28 29 31 32 32 32 31 31 32 33 33 32 32 31 31 31 30
27 29 30 32 33 33 32 28 25 25 25 25 25 25 24 24 24 25 25 25 26 26 27 27 27 26 27 29 30 30 30 29 28 28 29 30 30 29 28 28 27 26
28 30 30 32 33 30 27 24 24 25 25 25 24 24 24 24 25 25 25 24 24 24 24 24 25 24 25 27 28 29 28 28 27 26 27 28 28 28 27 26 26 25
Wind_Direction
248 251 254 258 261 265 269 270 270 275 277 279 281 280 281 285 284 277 274 277 280 280 278 278 277 275 273 273 273 273 273 273 273 272 272 271 270 267 264 261 258 256
251 254 257 259 261 264 268 272 276 280 280 281 282 284 285 285 282 279 279 280 281 281 282 282 280 278 275 273 273 273 273 272 273 273 274 273 272 271 268 265 263 261
255 258 261 263 266 270 274 278 282 282 282 284 284 284 283 282 283 287 290 289 286 286 285 285 284 282 280 277 275 276 275 274 273 271 270 269 269 270 268 267 266 263
263 266 272 279 283 286 289 290 287 287 288 286 283 282 282 285 290 295 297 296 293 289 286 286 286 284 284 284 283 282 278 275 273 271 271 270 270 270 269 268 267 265
292 295 296 296 295 292 292 288 287 290 288 283 282 283 287 295 300 299 297 297 295 292 289 288 287 287 286 286 285 282 279 276 274 273 273 273 272 271 269 267 267 266
303 301 296 291 288 286 286 286 287 287 282 283 287 290 291 298 301 296 293 293 293 293 292 290 289 289 287 287 286 285 283 280 277 276 276 275 272 271 270 269 267 265
328 320 310 304 301 298 296 293 292 289 287 290 295 295 295 298 296 291 290 293 295 293 291 291 291 291 290 290 289 288 286 284 282 280 279 277 275 273 272 271 269 267
345 341 335 327 321 314 309 306 303 300 296 295 296 295 296 296 293 289 290 294 296 292 290 292 293 292 292 290 289 288 286 285 283 282 280 278 276 274 272 271 270 270
354 345 341 338 333 328 322 316 313 310 307 305 304 302 300 299 297 294 291 292 293 293 294 296 295 294 293 293 293 293 291 289 287 285 283 281 279 277 274 271 270 270
356 348 346 343 338 335 331 324 318 314 313 311 309 309 308 308 307 304 301 297 296 295 296 297 296 295 295 295 295 295 295 294 291 289 287 285 283 281 278 275 273 272
357 353 352 348 343 342 339 337 333 327 324 322 318 317 316 313 311 309 307 305 302 300 299 298 297 296 297 297 295 293 293 293 292 290 289 288 287 285 281 278 276 275
358 355 354 352 348 347 344 342 339 334 331 327 322 319 317 314 312 310 309 308 306 305 304 304 302 299 300 298 293 291 292 293 293 292 291 290 289 287 284 281 278 276
355 352 351 352 350 347 344 339 336 333 330 325 321 318 316 314 312 311 310 309 307 307 307 308 308 307 307 306 299 294 294 293 291 290 291 292 291 291 288 285 282 279
350 348 348 348 347 345 341 336 332 330 327 323 319 317 314 313 311 310 309 308 307 307 306 307 308 309 310 310 307 302 301 299 295 293 292 291 291 291 289 287 285 282
343 343 344 343 342 340 338 334 329 327 327 323 317 315 313 311 310 309 308 307 306 305 305 305 306 308 310 310 308 306 305 302 299 297 297 296 294 291 289 287 285 282
337 337 338 337 337 336 335 333 328 326 326 323 316 313 311 309 309 308 307 307 306 306 306 307 308 310 311 310 308 307 306 303 300 299 298 297 296 293 290 287 285 282
332 331 332 332 332 332 332 330 327 324 324 322 316 312 310 309 308 308 308 308 307 308 308 308 309 310 310 308 307 306 305 304 301 299 297 296 295 293 290 286 284 281
328 326 326 327 329 329 328 328 326 323 323 320 316 312 311 310 310 310 310 310 309 309 309 309 309 309 308 306 306 305 304 302 301 300 298 296 295 293 291 288 285 283
325 323 322 324 325 324 324 325 323 322 321 318 314 313 312 312 312 312 312 311 310 309 309 308 309 308 306 304 303 302 301 300 299 299 298 298 297 295 292 290 288 286
321 320 319 320 320 320 320 321 320 320 319 316 314 314 313 313 313 314 313 312 310 309 308 308 308 307 305 302 301 300 300 299 298 297 296 296 295 294 292 291 288 286
317 317 316 316 315 316 317 318 319 318 316 315 314 314 314 314 315 314 313 311 310 308 307 307 307 306 304 302 300 300 299 299 298 297 295 292 292 292 291 290 287 285
312 313 314 313 313 315 317 317 316 316 314 313 313 313 315 314 313 312 310 309 307 306 305 304 304 304 302 300 299 298 298 298 297 295 293 291 291 291 289 287 286 284
309 310 310 310 312 314 316 315 315 315 313 313 312 313 313 312 310 309 308 307 306 305 304 303 303 303 301 298 297 297 297 297 296 294 293 291 291 290 287 285 284 282
306 308 308 310 313 313 313 313 313 313 312 312 312 312 312 310 309 308 308 308 309 308 307 306 305 304 301 298 296 296 297 296 295 294 292 292 291 290 288 286 284 282
305 308 309 311 311 310 311 311 311 311 311 311 311 311 311 310 310 310 311 312 312 311 310 309 308 306 303 299 298 298 298 297 296 295 295 295 294 294 293 292 290 288
305 307 308 308 307 309 310 311 311 311 312 311 311 312 312 312 313 313 314 315 315 313 313 313 313 313 311 308 306 305 303 302 301 300 299 298 298 297 296 295 294 292